Temp
-6 -6 -5 -5 -5 -5 -5 -6 -6 -6 -6 -6 -7 -8 -8 -9 -9 -9 -9 -9 -9 -9 -9 -9 -10 -10 -10 -11 -11 -11 -12 -12 -12 -12 -12 -12 -12 -12 -12 -12 -11 -11 -10 -11 -11 -11 -11 -11 -11
-6 -6 -6 -6 -5 -6 -5 -5 -6 -6 -6 -6 -6 -7 -7 -8 -9 -9 -9 -9 -8 -9 -9 -9 -10 -10 -10 -11 -11 -12 -12 -12 -12 -13 -13 -13 -13 -13 -13 -12 -12 -11 -11 -11 -11 -12 -12 -11 -11
-6 -6 -6 -5 -6 -6 -5 -6 -6 -6 -6 -6 -6 -6 -7 -8 -8 -8 -8 -8 -8 -9 -9 -9 -9 -10 -10 -11 -11 -11 -12 -12 -13 -13 -13 -13 -13 -13 -13 -13 -12 -12 -12 -11 -12 -12 -12 -12 -12
-6 -6 -6 -6 -6 -5 -6 -6 -6 -6 -6 -6 -6 -6 -7 -7 -8 -9 -9 -9 -9 -9 -9 -9 -10 -10 -10 -10 -11 -11 -11 -12 -12 -12 -13 -14 -13 -13 -13 -13 -13 -12 -12 -12 -12 -13 -13 -13 -12
-6 -6 -6 -6 -6 -6 -6 -6 -6 -6 -6 -6 -6 -6 -7 -8 -9 -9 -9 -10 -9 -9 -10 -10 -10 -10 -10 -11 -11 -11 -11 -12 -12 -12 -13 -13 -13 -13 -13 -13 -13 -13 -13 -12 -12 -12 -13 -13 -13
-6 -6 -6 -6 -6 -6 -6 -6 -6 -6 -6 -6 -7 -7 -8 -9 -10 -10 -9 -10 -10 -10 -10 -10 -10 -10 -11 -11 -11 -12 -12 -12 -12 -13 -12 -13 -13 -13 -13 -14 -13 -13 -13 -13 -13 -12 -13 -13 -13
-6 -6 -6 -6 -6 -6 -6 -6 -6 -6 -6 -7 -7 -8 -8 -9 -9 -9 -9 -9 -9 -10 -10 -10 -10 -11 -11 -11 -11 -11 -12 -13 -13 -13 -13 -13 -13 -13 -13 -13 -13 -14 -13 -14 -13 -13 -13 -13 -13
-6 -6 -6 -6 -6 -6 -6 -6 -6 -6 -7 -8 -9 -9 -9 -9 -9 -10 -10 -10 -10 -10 -11 -11 -11 -11 -11 -12 -12 -12 -12 -12 -13 -13 -13 -14 -13 -14 -13 -13 -14 -13 -14 -14 -14 -14 -13 -13 -13
-6 -6 -6 -6 -6 -6 -6 -7 -7 -8 -9 -9 -9 -10 -10 -10 -10 -10 -10 -10 -11 -11 -11 -10 -10 -11 -11 -11 -11 -11 -12 -12 -12 -13 -13 -13 -14 -14 -14 -14 -13 -14 -13 -14 -14 -14 -14 -13 -13
-7 -6 -6 -6 -6 -6 -7 -7 -8 -9 -10 -10 -10 -10 -10 -10 -10 -11 -11 -11 -11 -11 -11 -12 -12 -12 -12 -12 -12 -12 -12 -12 -12 -13 -13 -14 -14 -14 -14 -14 -14 -13 -13 -13 -14 -14 -13 -13 -13
-6 -6 -6 -6 -7 -7 -7 -8 -9 -10 -10 -10 -10 -10 -10 -11 -11 -11 -12 -11 -11 -11 -11 -12 -12 -13 -13 -13 -13 -13 -13 -13 -13 -13 -13 -14 -14 -14 -15 -14 -14 -13 -13 -13 -14 -13 -13 -13 -13
-7 -7 -7 -7 -7 -7 -8 -9 -9 -10 -10 -10 -11 -11 -11 -12 -12 -12 -12 -12 -12 -13 -13 -13 -14 -14 -14 -14 -14 -14 -14 -14 -15 -14 -14 -14 -14 -15 -14 -15 -14 -14 -13 -13 -14 -13 -13 -13 -12
-7 -7 -7 -8 -8 -9 -9 -10 -10 -10 -11 -11 -11 -12 -12 -12 -12 -12 -13 -13 -13 -14 -15 -15 -15 -15 -15 -15 -15 -15 -15 -15 -15 -15 -15 -15 -15 -15 -15 -15 -15 -14 -14 -12 -13 -13 -12 -12 -13
-7 -8 -9 -10 -10 -10 -10 -10 -10 -11 -11 -11 -12 -12 -12 -13 -13 -13 -14 -14 -14 -15 -15 -15 -15 -15 -16 -16 -16 -16 -16 -16 -16 -16 -16 -16 -16 -16 -16 -15 -15 -15 -14 -14 -13 -12 -12 -13 -13
-9 -10 -10 -10 -10 -10 -10 -11 -11 -11 -11 -12 -12 -12 -13 -13 -13 -14 -15 -15 -15 -15 -16 -16 -16 -16 -17 -17 -17 -17 -17 -17 -18 -18 -18 -18 -17 -18 -17 -17 -16 -15 -15 -15 -15 -13 -13 -13 -13
-10 -11 -11 -11 -11 -11 -11 -12 -12 -12 -12 -12 -13 -13 -13 -14 -14 -15 -15 -15 -15 -16 -16 -17 -17 -17 -18 -18 -18 -18 -18 -19 -19 -19 -19 -19 -19 -19 -19 -19 -17 -16 -16 -16 -15 -15 -15 -13 -12
-11 -11 -11 -11 -11 -11 -11 -12 -12 -12 -13 -13 -14 -14 -14 -15 -15 -15 -16 -16 -16 -16 -17 -17 -18 -18 -18 -18 -18 -19 -19 -19 -19 -20 -20 -20 -20 -21 -22 -22 -20 -17 -16 -16 -16 -15 -15 -15 -12
-11 -11 -11 -11 -11 -11 -12 -12 -12 -13 -13 -14 -14 -14 -15 -15 -15 -16 -16 -16 -17 -17 -17 -17 -18 -18 -18 -19 -19 -19 -20 -20 -20 -20 -20 -21 -21 -22 -23 -23 -23 -21 -18 -17 -16 -16 -15 -16 -13
-11 -12 -12 -12 -12 -12 -12 -13 -13 -14 -14 -15 -15 -15 -15 -15 -16 -16 -16 -17 -17 -17 -17 -18 -18 -18 -19 -19 -19 -19 -20 -20 -21 -21 -21 -21 -22 -22 -23 -24 -23 -23 -21 -20 -17 -16 -15 -14 -13
-12 -12 -12 -12 -12 -13 -13 -13 -14 -14 -15 -15 -15 -15 -15 -15 -16 -16 -17 -17 -17 -17 -17 -18 -18 -18 -19 -19 -19 -20 -20 -21 -22 -22 -22 -22 -22 -24 -24 -24 -24 -23 -22 -21 -20 -17 -16 -15 -16
-12 -12 -12 -13 -13 -13 -13 -14 -14 -15 -15 -15 -15 -15 -16 -16 -16 -17 -17 -17 -18 -17 -18 -18 -19 -19 -18 -19 -20 -20 -21 -22 -22 -23 -23 -23 -23 -25 -25 -25 -24 -23 -23 -22 -22 -20 -17 -16 -15
-12 -12 -13 -13 -13 -14 -15 -15 -15 -15 -15 -15 -16 -16 -16 -16 -17 -17 -17 -18 -18 -18 -18 -19 -19 -18 -19 -19 -20 -21 -21 -23 -23 -23 -24 -25 -26 -26 -26 -26 -25 -24 -23 -23 -22 -21 -19 -17 -16
-13 -13 -13 -14 -14 -14 -15 -15 -15 -15 -16 -16 -16 -16 -16 -17 -17 -17 -18 -18 -17 -18 -18 -19 -19 -18 -19 -19 -21 -21 -22 -24 -24 -24 -27 -28 -28 -27 -26 -26 -25 -24 -23 -23 -22 -22 -21 -18 -17
-13 -13 -14 -14 -14 -15 -15 -15 -16 -16 -16 -16 -16 -16 -17 -17 -17 -18 -18 -18 -18 -18 -19 -19 -19 -18 -19 -20 -21 -22 -23 -24 -25 -26 -28 -29 -28 -27 -26 -26 -25 -24 -23 -23 -22 -22 -21 -20 -18
-14 -14 -14 -14 -15 -15 -16 -16 -16 -16 -16 -16 -17 -17 -17 -17 -17 -18 -18 -18 -18 -19 -19 -19 -18 -18 -20 -21 -22 -22 -24 -25 -25 -27 -29 -29 -28 -27 -27 -26 -25 -24 -24 -23 -22 -22 -22 -21 -19
-14 -14 -15 -15 -16 -16 -16 -16 -16 -16 -16 -17 -17 -17 -17 -17 -17 -18 -18 -18 -18 -19 -19 -18 -18 -19 -20 -21 -22 -23 -24 -25 -25 -28 -29 -29 -28 -28 -27 -26 -25 -24 -23 -23 -22 -22 -22 -21 -20
-15 -15 -15 -15 -16 -16 -16 -16 -16 -16 -16 -17 -17 -17 -17 -18 -18 -18 -18 -18 -19 -19 -18 -17 -18 -19 -21 -22 -23 -23 -24 -25 -25 -27 -29 -29 -28 -28 -27 -26 -26 -25 -24 -23 -22 -22 -22 -21 -21
-15 -15 -15 -16 -16 -16 -16 -16 -16 -16 -16 -17 -17 -17 -18 -18 -18 -18 -18 -18 -19 -19 -17 -18 -18 -20 -21 -22 -23 -23 -24 -25 -26 -27 -29 -28 -28 -28 -27 -26 -26 -25 -24 -23 -23 -22 -22 -21 -21
-15 -15 -15 -16 -16 -16 -16 -16 -16 -16 -17 -17 -17 -17 -18 -18 -18 -18 -18 -19 -19 -18 -17 -18 -19 -20 -21 -22 -23 -23 -24 -25 -26 -26 -28 -28 -28 -28 -27 -27 -26 -25 -24 -23 -23 -22 -22 -21 -21
-15 -15 -16 -16 -16 -16 -16 -16 -16 -17 -17 -17 -17 -17 -18 -18 -18 -18 -18 -18 -18 -17 -17 -18 -20 -20 -22 -22 -23 -24 -24 -25 -26 -26 -27 -28 -28 -28 -27 -27 -26 -25 -24 -24 -23 -22 -22 -21 -21
Height
5906 5904 5904 5905 5907 5903 5902 5901 5900 5898 5895 5891 5887 5882 5880 5878 5876 5874 5868 5865 5863 5860 5857 5854 5851 5848 5846 5845 5843 5841 5839 5837 5836 5834 5835 5837 5836 5835 5834 5835 5834 5832 5830 5828 5828 5828 5827 5826 5825
5904 5904 5903 5902 5902 5900 5900 5898 5896 5895 5892 5889 5886 5883 5879 5876 5873 5870 5866 5861 5858 5857 5854 5851 5847 5844 5840 5838 5836 5833 5832 5831 5829 5828 5828 5829 5831 5831 5830 5829 5828 5827 5825 5824 5823 5823 5823 5823 5822
5902 5902 5902 5899 5898 5897 5895 5892 5891 5888 5886 5884 5882 5878 5876 5873 5869 5864 5860 5856 5852 5850 5847 5844 5841 5837 5834 5831 5828 5827 5825 5825 5823 5823 5822 5821 5821 5823 5823 5822 5822 5821 5820 5819 5818 5818 5818 5818 5818
5901 5901 5900 5897 5896 5893 5890 5887 5885 5883 5881 5877 5873 5872 5870 5865 5860 5855 5851 5847 5844 5841 5838 5835 5832 5830 5827 5824 5821 5819 5817 5818 5817 5815 5814 5814 5814 5814 5815 5815 5814 5814 5813 5813 5812 5812 5812 5813 5814
5897 5896 5896 5894 5891 5888 5885 5883 5879 5875 5872 5868 5866 5862 5860 5856 5852 5848 5845 5840 5836 5833 5829 5825 5821 5817 5815 5813 5811 5809 5809 5809 5807 5806 5804 5802 5802 5804 5804 5804 5806 5806 5807 5807 5807 5807 5806 5807 5809
5893 5893 5891 5889 5887 5884 5881 5877 5874 5870 5865 5861 5857 5854 5850 5848 5844 5839 5835 5832 5827 5822 5818 5815 5811 5807 5802 5799 5798 5798 5797 5795 5794 5794 5794 5792 5791 5792 5793 5793 5797 5799 5800 5800 5800 5800 5800 5801 5802
5888 5888 5886 5884 5882 5879 5876 5872 5868 5864 5860 5855 5850 5846 5843 5841 5837 5832 5827 5823 5818 5812 5809 5805 5801 5797 5794 5791 5787 5785 5783 5782 5781 5781 5780 5781 5781 5782 5781 5783 5784 5789 5792 5793 5793 5793 5792 5793 5793
5883 5882 5881 5879 5877 5873 5868 5865 5862 5858 5854 5849 5845 5841 5837 5832 5828 5823 5818 5814 5810 5804 5799 5795 5791 5785 5782 5778 5776 5773 5772 5770 5768 5769 5770 5770 5771 5772 5772 5773 5774 5777 5781 5783 5785 5786 5784 5786 5785
5878 5876 5875 5874 5870 5868 5864 5860 5855 5851 5847 5843 5838 5834 5831 5827 5821 5816 5811 5805 5800 5794 5789 5784 5779 5775 5771 5766 5763 5760 5758 5756 5754 5753 5754 5755 5756 5757 5760 5762 5764 5764 5768 5772 5774 5776 5775 5776 5776
5874 5872 5870 5867 5865 5861 5858 5854 5850 5846 5842 5838 5834 5830 5825 5820 5814 5808 5803 5798 5793 5787 5780 5776 5772 5766 5761 5755 5751 5746 5744 5740 5737 5736 5737 5737 5739 5742 5744 5746 5750 5751 5754 5759 5763 5765 5767 5768 5770
5867 5866 5863 5861 5858 5855 5851 5847 5844 5841 5837 5833 5830 5826 5820 5815 5810 5805 5799 5794 5788 5782 5776 5769 5763 5757 5753 5746 5741 5736 5731 5724 5721 5720 5720 5720 5721 5724 5729 5731 5736 5741 5742 5746 5749 5754 5756 5760 5762
5861 5859 5857 5854 5852 5848 5845 5842 5839 5836 5832 5827 5822 5819 5815 5810 5806 5800 5794 5788 5782 5776 5770 5764 5757 5750 5745 5739 5733 5726 5720 5715 5709 5704 5701 5700 5701 5706 5710 5714 5719 5725 5727 5732 5737 5741 5745 5751 5753
5856 5853 5850 5847 5845 5842 5839 5837 5835 5832 5828 5823 5818 5813 5808 5804 5800 5794 5787 5782 5775 5770 5764 5758 5751 5744 5737 5731 5724 5716 5709 5703 5697 5692 5686 5683 5682 5684 5690 5694 5700 5705 5711 5714 5720 5727 5733 5739 5744
5851 5847 5844 5842 5839 5837 5835 5833 5831 5827 5823 5818 5813 5808 5804 5799 5795 5789 5783 5778 5772 5765 5757 5750 5742 5735 5728 5721 5714 5707 5699 5692 5686 5678 5670 5667 5664 5663 5667 5673 5680 5686 5690 5693 5699 5708 5720 5727 5733
5844 5842 5840 5837 5835 5832 5830 5828 5825 5822 5818 5814 5810 5806 5802 5797 5793 5788 5782 5775 5769 5761 5754 5745 5738 5730 5722 5714 5706 5698 5690 5682 5675 5666 5657 5651 5647 5646 5645 5650 5657 5664 5668 5676 5683 5692 5702 5715 5721
5838 5836 5834 5832 5830 5829 5828 5825 5821 5817 5814 5810 5806 5802 5799 5795 5790 5784 5777 5771 5764 5756 5748 5740 5731 5723 5715 5706 5696 5687 5678 5670 5662 5654 5644 5636 5632 5628 5628 5629 5635 5642 5648 5655 5665 5675 5684 5694 5708
5833 5831 5830 5828 5826 5825 5824 5821 5817 5813 5809 5806 5803 5800 5797 5792 5787 5780 5774 5767 5759 5752 5744 5735 5726 5717 5708 5698 5689 5679 5669 5658 5649 5640 5632 5624 5617 5613 5611 5613 5615 5621 5628 5636 5647 5656 5669 5675 5691
5828 5827 5826 5824 5822 5820 5818 5814 5811 5808 5805 5802 5800 5797 5794 5789 5783 5777 5769 5761 5753 5746 5738 5729 5719 5711 5701 5691 5681 5670 5660 5649 5638 5627 5618 5610 5603 5598 5597 5598 5600 5605 5610 5615 5629 5641 5654 5663 5675
5825 5825 5824 5821 5819 5817 5813 5810 5807 5804 5802 5800 5798 5794 5790 5785 5779 5771 5763 5757 5749 5742 5733 5723 5715 5705 5696 5686 5676 5665 5652 5640 5627 5615 5604 5596 5588 5582 5582 5584 5588 5590 5594 5600 5612 5622 5633 5650 5660
5822 5821 5819 5818 5815 5812 5809 5806 5804 5802 5800 5798 5795 5791 5786 5780 5773 5766 5760 5753 5746 5738 5728 5718 5709 5700 5689 5678 5666 5653 5639 5625 5610 5598 5587 5578 5572 5566 5566 5570 5575 5578 5581 5586 5595 5607 5619 5630 5642
5817 5817 5815 5814 5811 5808 5805 5804 5803 5801 5798 5795 5791 5786 5782 5776 5769 5763 5757 5749 5741 5732 5723 5715 5705 5694 5682 5670 5657 5643 5628 5612 5598 5584 5569 5557 5551 5551 5553 5557 5562 5567 5571 5574 5582 5593 5604 5616 5628
5812 5812 5810 5808 5806 5805 5804 5803 5800 5799 5796 5791 5787 5783 5778 5771 5766 5759 5752 5745 5737 5727 5719 5710 5700 5688 5675 5661 5646 5630 5613 5598 5583 5568 5552 5540 5535 5537 5542 5546 5551 5557 5562 5566 5570 5579 5590 5602 5614
5808 5807 5806 5804 5803 5803 5802 5800 5798 5794 5791 5787 5784 5779 5773 5767 5762 5756 5749 5741 5732 5724 5715 5705 5695 5681 5667 5652 5636 5620 5603 5585 5568 5552 5536 5528 5526 5527 5532 5537 5542 5547 5552 5558 5562 5569 5576 5587 5601
5806 5805 5803 5802 5801 5800 5798 5795 5793 5789 5787 5783 5778 5772 5767 5763 5758 5752 5745 5737 5729 5720 5711 5701 5689 5675 5660 5645 5629 5611 5594 5577 5560 5542 5531 5525 5522 5522 5525 5529 5534 5538 5543 5550 5555 5560 5567 5575 5587
5803 5802 5802 5802 5799 5797 5794 5792 5789 5786 5782 5778 5772 5768 5765 5761 5755 5749 5742 5735 5725 5717 5707 5696 5683 5669 5655 5639 5623 5606 5589 5572 5554 5536 5529 5524 5520 5518 5520 5523 5527 5531 5536 5541 5548 5554 5559 5566 5576
5800 5800 5799 5798 5796 5794 5792 5790 5786 5782 5778 5773 5770 5767 5763 5758 5753 5747 5740 5731 5722 5714 5703 5691 5678 5665 5651 5634 5618 5602 5584 5567 5551 5535 5528 5523 5519 5517 5517 5519 5522 5525 5530 5534 5541 5547 5553 5560 5567
5798 5797 5796 5794 5794 5792 5790 5787 5784 5780 5776 5773 5769 5766 5761 5754 5750 5744 5736 5728 5719 5711 5700 5688 5675 5661 5647 5631 5616 5599 5582 5566 5550 5535 5528 5523 5518 5516 5514 5515 5517 5520 5524 5528 5534 5540 5546 5553 5559
5794 5794 5793 5792 5791 5789 5787 5784 5781 5778 5775 5771 5767 5762 5757 5752 5747 5740 5733 5724 5716 5707 5696 5685 5671 5658 5644 5629 5614 5598 5582 5566 5550 5536 5527 5522 5517 5514 5512 5512 5514 5516 5519 5523 5527 5534 5539 5545 5552
5791 5790 5789 5789 5788 5786 5784 5782 5779 5775 5772 5768 5764 5760 5754 5749 5743 5736 5729 5722 5714 5704 5693 5681 5668 5655 5642 5627 5612 5597 5581 5566 5551 5537 5526 5521 5516 5513 5510 5510 5510 5511 5514 5517 5521 5526 5533 5539 5544
5787 5787 5787 5785 5786 5783 5781 5781 5777 5772 5770 5766 5762 5757 5752 5746 5740 5733 5726 5719 5711 5701 5690 5678 5666 5653 5640 5625 5611 5597 5581 5566 5552 5539 5526 5519 5515 5511 5508 5507 5506 5507 5508 5511 5514 5519 5524 5530 5536
Wind_Speed
13 17 18 18 18 19 20 20 19 20 21 22 23 25 27 29 33 36 40 40 42 40 38 40 41 45 47 45 46 45 46 44 44 44 44 41 36 35 27 26 25 25 25 25 24 23 23 22 20
15 16 19 19 20 22 23 22 23 23 24 25 26 28 30 32 35 39 42 43 44 40 40 40 41 44 47 49 49 48 47 46 46 45 47 44 39 36 36 31 28 28 27 28 27 24 24 23 20
16 17 20 22 23 24 26 26 27 29 29 29 29 30 31 34 38 41 43 45 45 46 47 46 45 45 47 49 51 51 49 46 46 48 47 47 44 39 40 38 31 30 30 29 28 26 26 25 22
19 21 21 24 26 26 28 30 31 32 32 33 33 33 35 39 42 45 47 49 50 49 49 49 48 48 48 49 50 52 52 49 48 48 47 48 47 45 42 42 37 32 32 31 30 28 27 25 24
23 24 25 26 27 28 30 32 33 35 37 37 37 39 42 44 47 49 50 49 49 49 49 50 51 51 51 50 50 51 51 51 50 50 49 53 50 51 47 46 40 38 34 33 32 32 30 27 26
26 26 27 28 29 30 32 34 36 37 39 42 44 46 48 48 50 50 51 50 50 51 52 52 52 52 53 53 52 51 51 51 52 52 51 51 53 52 49 50 44 40 37 36 35 34 35 31 28
28 29 29 29 31 32 33 35 37 38 41 44 47 48 49 48 49 50 51 51 52 52 51 51 50 50 50 51 52 53 53 53 53 54 55 57 54 55 53 51 49 45 41 38 38 39 36 36 33
30 31 30 31 32 34 36 38 39 41 44 46 47 47 46 47 49 50 50 50 50 51 51 50 50 51 52 52 53 53 52 54 55 55 56 59 60 58 56 55 55 50 45 40 42 41 41 39 37
30 31 32 33 35 36 38 39 42 43 43 43 43 44 45 46 46 47 48 48 50 51 52 53 54 54 54 55 55 56 56 56 55 57 58 59 62 64 63 59 57 56 51 44 46 45 48 43 41
31 32 34 35 37 39 39 41 41 39 38 38 39 41 42 43 44 46 47 48 49 50 51 50 51 51 52 52 52 53 53 55 58 59 59 61 63 65 66 65 60 59 54 50 49 50 50 48 45
32 33 34 36 38 37 40 41 37 34 34 35 36 36 38 39 41 42 43 44 45 47 49 50 50 49 48 48 46 46 46 49 52 55 61 63 65 66 67 69 65 60 64 54 56 52 54 51 46
32 33 34 35 35 38 38 36 32 31 32 33 34 35 35 37 37 37 39 42 43 44 43 43 43 43 42 42 42 43 43 41 41 47 54 60 67 68 68 70 69 68 63 61 61 60 53 53 51
30 31 32 33 34 33 30 28 28 28 30 31 32 33 33 33 35 37 39 41 40 39 39 39 40 41 42 43 44 45 46 46 45 43 44 51 62 69 70 72 73 74 69 63 65 62 65 53 55
31 32 29 26 25 25 23 24 26 27 28 28 29 29 30 33 35 35 35 33 35 37 39 42 44 44 45 46 47 49 50 48 47 47 48 43 48 62 71 73 74 77 78 76 71 61 55 60 63
25 21 18 19 21 21 21 23 24 25 26 27 27 28 30 33 32 30 30 32 34 38 41 44 45 45 45 49 51 52 53 52 49 47 47 46 43 48 62 73 77 78 82 82 83 60 65 63 58
16 15 16 17 18 19 20 21 21 22 24 24 25 27 28 28 27 27 30 33 37 41 45 48 47 46 49 52 53 55 55 54 51 47 47 46 44 41 47 59 74 80 82 82 81 78 69 66 61
11 13 13 16 18 18 19 20 20 21 21 22 24 24 23 24 24 26 31 36 40 44 48 49 48 49 50 52 55 56 55 56 53 50 47 46 45 42 42 42 57 76 82 82 80 79 72 67 62
11 12 13 14 18 18 20 20 20 20 21 21 22 23 22 23 26 30 35 40 43 47 50 49 49 50 52 53 55 56 57 57 56 53 52 46 46 41 42 41 41 54 76 79 77 79 78 70 64
12 12 12 13 17 17 18 18 18 19 21 21 20 20 22 25 29 35 39 42 44 47 49 48 49 51 52 55 57 55 55 56 56 54 53 48 50 42 41 43 38 40 53 61 71 76 75 74 54
11 11 12 12 15 17 18 18 18 20 20 20 21 22 26 30 33 37 40 43 44 47 48 47 49 50 54 58 58 57 60 61 60 57 55 54 51 40 39 42 39 37 40 48 49 71 76 74 81
13 11 12 12 13 15 17 17 17 20 20 21 23 25 29 31 34 37 40 41 42 47 47 47 49 52 58 61 62 60 62 64 62 59 61 59 46 34 35 36 36 37 36 39 37 53 70 75 76
12 12 13 14 14 14 13 15 18 19 20 22 24 27 30 33 35 38 40 41 44 46 47 49 51 57 63 65 66 65 67 69 66 62 61 45 36 32 30 31 35 37 37 37 35 36 54 68 72
12 12 12 14 15 15 13 15 16 19 20 23 25 28 31 33 35 38 39 40 44 46 48 50 54 62 66 69 67 67 70 72 72 67 46 31 26 27 29 28 29 33 32 36 37 33 38 52 66
12 11 13 14 15 13 15 17 18 20 22 24 26 29 30 32 34 37 39 41 44 46 48 51 57 66 68 67 68 69 72 73 74 60 35 24 22 21 25 26 29 30 32 34 37 35 34 41 55
12 12 13 13 12 13 15 17 19 20 22 24 26 28 29 31 33 36 40 42 43 46 49 53 63 68 67 67 68 70 71 72 74 53 29 21 20 19 21 23 26 30 31 31 35 36 33 37 44
12 13 13 12 11 13 16 16 18 20 22 24 25 27 29 30 33 36 39 41 43 46 49 57 65 66 65 66 67 69 70 71 73 49 28 23 17 16 19 22 23 26 30 33 32 34 37 32 41
12 13 13 11 11 14 14 15 15 18 20 22 24 26 29 31 34 36 39 41 43 46 50 59 64 64 64 64 66 68 69 70 71 52 27 24 19 15 17 21 23 25 28 32 35 38 36 36 37
13 13 12 11 13 13 13 14 15 18 20 23 25 27 28 31 33 34 37 41 43 46 52 59 63 63 63 63 65 66 67 68 69 59 30 24 20 16 15 18 22 23 25 31 34 36 38 40 38
13 13 12 12 12 13 13 15 17 20 21 23 25 26 28 31 32 33 36 40 42 45 53 59 60 61 62 62 64 65 66 66 65 64 36 25 22 18 15 15 19 22 24 29 33 36 36 43 42
13 14 13 11 11 13 15 15 16 20 22 23 25 27 29 30 32 32 35 38 41 46 53 57 58 60 61 62 63 64 65 65 62 65 47 25 21 18 15 14 16 19 23 27 32 36 37 42 45
Wind_Direction
284 292 303 315 318 318 313 320 321 314 305 300 295 295 294 293 294 296 297 295 298 298 296 294 291 288 286 282 284 284 284 285 285 282 286 286 285 284 279 278 277 272 270 277 283 288 297 290 297
281 295 303 306 307 306 309 313 311 306 303 298 293 290 290 290 288 288 291 291 296 296 293 288 283 279 279 279 279 278 278 278 278 280 281 283 282 278 286 280 272 266 264 269 276 280 282 286 280
290 296 299 301 303 308 311 311 310 307 304 300 294 292 290 288 286 288 290 293 295 295 293 290 286 281 276 274 273 272 272 272 271 274 276 277 277 272 275 280 273 266 262 264 267 274 276 277 272
294 293 296 299 302 307 309 308 307 304 301 297 295 294 292 290 292 295 297 297 297 296 295 292 288 284 280 276 272 271 270 268 270 272 267 267 271 272 266 273 272 268 258 259 262 266 273 270 265
291 294 297 299 303 306 307 306 304 301 299 298 297 296 296 295 295 296 298 298 298 298 296 295 293 291 286 279 275 273 271 270 266 266 265 264 259 263 264 267 267 267 263 257 260 261 267 270 263
289 292 296 301 305 305 304 302 299 298 299 300 300 299 299 300 298 300 301 302 302 302 301 298 295 293 291 288 283 277 271 267 265 261 260 259 260 255 257 262 263 260 261 258 253 256 260 262 259
292 294 299 302 304 302 298 296 295 296 296 294 296 298 300 299 300 301 302 304 304 302 299 297 295 292 289 287 285 282 277 271 264 259 256 255 259 259 253 254 258 255 255 256 256 254 253 256 254
294 297 301 303 301 296 295 295 296 295 295 297 299 301 302 303 304 305 305 305 303 301 300 299 298 296 294 291 289 285 280 275 271 265 257 254 254 257 261 256 256 258 249 248 254 257 251 247 250
294 297 299 298 295 294 294 295 295 296 297 300 302 303 304 304 304 304 305 306 306 305 305 304 301 300 298 294 291 288 284 281 274 268 263 257 251 252 254 255 257 251 251 245 246 251 258 246 244
292 294 296 294 294 293 294 294 294 296 298 299 300 301 302 305 307 308 309 308 307 307 308 306 304 302 300 298 295 291 286 281 274 269 263 259 254 248 248 252 252 242 247 246 245 249 252 254 244
293 294 294 293 291 292 293 291 293 296 297 298 299 302 304 306 305 306 306 306 306 305 305 306 306 304 303 303 302 298 295 289 282 273 265 260 256 251 247 247 248 248 249 242 247 241 248 252 249
290 291 290 288 288 287 286 289 297 300 300 302 305 305 305 305 308 308 308 310 310 308 308 308 310 310 310 309 307 305 302 298 293 283 272 261 255 252 248 245 244 243 242 239 242 243 244 245 248
289 291 289 286 283 284 292 298 298 298 299 301 303 305 307 310 311 314 315 314 317 318 319 318 317 319 319 318 317 316 314 311 308 298 286 272 258 250 247 245 241 241 238 238 230 242 239 245 245
289 280 277 280 282 286 290 293 295 299 300 302 305 308 313 317 318 317 320 323 328 333 334 331 330 328 326 325 325 324 322 319 316 310 302 290 268 254 246 242 242 240 240 238 235 228 233 242 240
275 276 279 280 286 289 299 297 298 299 302 304 306 313 317 316 315 321 330 338 341 340 339 338 335 332 331 332 330 328 325 322 318 316 310 304 290 263 250 241 239 239 239 239 242 239 238 238 234
277 277 276 285 289 293 294 292 295 298 301 305 312 315 316 317 323 333 338 339 342 342 343 341 340 340 340 337 335 333 330 325 321 314 311 308 304 281 256 248 238 237 238 238 238 239 241 224 231
276 273 282 282 285 291 289 295 298 303 307 315 318 316 319 326 333 338 340 342 343 343 343 343 344 343 343 342 340 335 329 324 318 313 310 307 304 286 267 256 244 237 236 236 236 239 237 238 219
259 268 278 281 289 293 298 302 305 309 318 317 315 320 325 328 335 339 343 344 343 344 344 346 346 347 346 344 344 338 330 324 317 311 309 306 305 285 264 260 251 242 238 238 234 233 232 233 233
264 269 278 287 292 301 303 305 308 317 315 311 315 319 324 331 339 342 345 342 341 344 345 348 348 349 346 344 342 337 333 324 319 311 308 306 307 284 259 253 254 246 240 242 233 232 232 228 224
264 272 282 290 301 307 305 310 316 311 305 305 312 319 327 335 341 344 341 340 341 343 348 348 347 346 343 341 338 335 333 327 322 319 315 308 307 277 256 247 247 247 242 240 238 228 228 230 225
270 281 291 300 302 302 306 308 311 303 298 303 313 322 329 337 342 341 340 341 342 346 347 344 343 344 342 342 341 337 333 329 327 323 320 315 300 266 253 241 241 241 241 236 235 233 226 226 228
281 293 302 308 308 308 306 306 303 297 302 308 315 323 331 340 341 341 343 343 343 347 344 342 344 345 345 344 342 339 336 334 333 329 325 309 284 265 250 238 236 237 237 236 232 231 231 225 224
284 300 302 299 297 294 303 308 310 312 315 317 320 325 338 342 342 343 345 344 346 346 341 341 345 347 348 346 343 341 339 338 339 338 327 309 285 261 251 245 233 233 234 233 229 228 226 228 223
282 289 292 289 286 299 312 319 323 325 325 327 331 340 344 342 342 344 346 345 346 343 339 342 348 351 349 347 345 343 341 342 344 340 333 318 298 269 249 246 235 232 233 228 228 227 224 220 225
276 275 275 278 285 308 318 322 327 329 334 339 346 345 342 341 343 343 347 343 346 340 338 346 351 352 350 348 347 345 344 346 350 344 339 329 307 280 255 246 240 230 231 228 227 225 224 221 217
268 268 273 280 300 311 314 324 329 341 345 348 347 342 339 340 340 343 343 343 343 338 340 350 350 352 351 349 348 347 346 348 353 348 342 337 317 287 263 247 245 234 227 229 226 231 225 219 215
260 266 271 285 296 302 316 329 339 345 344 343 343 338 337 340 337 340 340 342 340 339 347 350 351 352 351 349 349 349 348 350 355 353 344 341 331 305 272 252 246 238 228 228 225 228 227 222 216
255 262 273 283 289 303 322 334 340 340 338 339 339 335 337 337 336 336 337 340 339 341 350 350 352 352 352 349 351 350 349 352 355 357 347 344 337 319 289 263 250 243 233 228 226 221 228 225 219
254 266 270 273 287 308 323 335 336 331 337 339 335 335 337 335 337 335 338 338 338 347 350 351 352 352 352 350 352 352 352 353 355 360 348 340 339 328 304 279 261 248 238 231 225 224 223 225 222
255 263 266 273 294 309 319 331 331 329 336 334 331 335 335 333 336 335 337 338 341 349 351 352 352 353 352 351 353 353 353 354 354 358 355 337 335 331 315 297 277 258 245 238 230 226 221 222 222